www.pogodaiklimat.ru

Погода и климат >> Архив погоды >> Индия >> Jagdalpur


ПОГОДА в Jagdalpur

  • Прогноз погоды в Jagdalpur
  • Монитор погоды в Jagdalpur
  • Климат города

АРХИВ ПОГОДЫ в Jagdalpur

Время (UTC), дата Ветер
(напр.,м/с)
 
Видим.   Явления Облачность Т
(С)
Тd
(С)
f
(%)
Тe
(С)
Тes
(С)
Комфортность P
(гПа)
Po
(гПа)
Тmin
(С)
Tmax
(С)
R
(мм)
R24
(мм)
S
(см)
06 12.12 штиль 0 2000 м мгла {туман} 3/3 750 м
[Sc]
+22.0 +19.0 83 +27 +38 душно 1015.7 953.6
09 12.12 СЗ 1 4000 м 6/3 750 м
[Sc As trans]
+27.2 +17.0 54 +31 +35 душно 1011.3 950.8
12 12.12 штиль 0 4000 м 6/3 750 м
[Sc As trans]
+25.6 +18.6 65 +30 +30 душно 1011.7 950.7 +28.7
15 12.12 штиль 0 4000 м 5/3 750 м
[Sc Ac trans]
+22.0 +18.3 80 +27 +27 душно 1015.1 953.1
18 12.12 штиль 0 4000 м ясно +20.0 +17.8 87 +23 +23 комфорт 1016.0 953.5
21 12.12 штиль 0 4000 м ясно +18.6 +16.9 90 +19 +19 1015.3 952.7
00 13.12 штиль 0 2000 м мгла ясно +17.8 +16.5 92 +18 +18 1015.2 952.4
03 13.12 штиль 0 1000 м дымка 10/5 750 м
[Sc As trans]
+19.0 +17.1 89 +20 +21 1017.5 954.7 +16.7
06 13.12 С 2 2000 м мгла {дождь} 10/5 750 м
[Sc As trans]
+20.8 +17.7 82 +25 +28 комфорт 1017.6 955.2 0.0
09 13.12 С 2 2000 м мгла 10/6 750 м
[St As trans]
+21.4 +17.7 79 +26 +27 душно 1015.1 953.0 0.0
12 13.12 СВ 1 2000 м мгла 10/6 750 м
[Sc As trans]
+20.0 +16.5 80 +24 +24 комфорт 1015.3 952.9 +21.9 0.0
15 13.12 СВ 1 2000 м мгла 10/6 750 м
[Sc As trans]
+19.6 +16.4 82 +23 +23 комфорт 1017.3 954.8 0.0
18 13.12 штиль 0 2000 м мгла 3/3 750 м
[Sc]
+18.6 +16.0 85 +19 +19 1017.3 954.6 0.0
21 13.12 С 1 <50 м туман ?/? +17.6 +16.0 90 +19 +19 1016.2 953.3 0.0
00 14.12 С 1 <50 м туман ?/? +16.8 +16.5 98 +18 +18 1016.8 953.6 0.0
03 14.12 В 1 200 м туман ?/? +17.0 +16.3 96 +18 +18 1019.4 956.1 +15.1 0.0
06 14.12 С 1 2000 м мгла {туман} 10/6 750 м
[Sc As trans]
+21.4 +17.7 79 +26 +28 душно 1018.0 955.8
09 14.12 ЮВ 1 4000 м 5/0
[Ac trans Ci fib]
+24.6 +18.5 69 +29 +36 душно 1014.5 953.1
12 14.12 СЗ 1 4000 м 4/0
[Ac trans Ci fib]
+23.5 +19.3 77 +28 +28 душно 1015.4 953.8 +25.5
15 14.12 штиль 0 4000 м ясно +19.6 +17.1 85 +22 +22 комфорт 1018.2 955.6
18 14.12 штиль 0 4000 м ясно +18.0 +16.1 89 +18 +18 1018.9 955.8
21 14.12 штиль 0 2000 м дымка ясно +17.2 +15.6 90 +17 +17 1017.1 954.2
00 15.12 штиль 0 2000 м дымка ясно +15.6 +14.1 91 +15 +15 1017.6 954.2
03 15.12 В 1 2000 м мгла ясно +17.5 +14.7 84 +19 +23 1019.9 956.8 +13.8
06 15.12 СВ 1 4000 м мгла 5/4 750 м
[Sc Ci fib]
+24.2 +13.7 52 +26 +34 жарко 1017.4 955.8
09 15.12 СВ 1 4000 м 9/4 750 м
[Sc Ac trans]
+25.0 +10.6 40 +26 +29 жарко 1014.1 952.8
12 15.12 С 1 4000 м 10/6 750 м
[Sc As trans]
+22.6 +10.4 46 +24 +24 комфорт 1016.1 954.2 +26.1
15 15.12 С 3 4000 м 10/6 750 м
[Sc As trans]
+20.4 +11.8 58 +23 +23 комфорт 1018.1 955.7
18 15.12 В 3 4000 м 10/6 750 м
[Sc As trans]
+20.0 +9.6 51 +22 +22 комфорт 1017.6 955.0
21 15.12 СВ 2 4000 м 10/6 750 м
[Sc As trans]
+17.4 +10.1 62 +18 +18 1016.2 953.5
00 16.12 штиль 0 4000 м 10/6 750 м
[Sc As trans]
+17.2 +12.4 73 +17 +17 1016.6 953.7
03 16.12 штиль 0 2000 м мгла 10/6 750 м
[Sc As trans]
+18.0 +12.1 68 +18 +19 1018.7 955.6 +15.9
06 16.12 СВ 1 4000 м {дождь} 10/6 750 м
[Sc As trans]
+19.6 +11.2 58 +22 +24 комфорт 1018.0 955.4 0.0
09 16.12 В 2 4000 м в посл. час дождь 10/6 600 м
[Sc As op]
+18.2 +16.5 90 +19 +20 1015.9 953.2 0.2
12 16.12 СВ 2 1000 м морось {дождь} 10/8 360 м
[Frnb As op]
+15.8 +14.8 94 +16 +16 1017.0 953.6 +20.2 3
15 16.12 штиль 0 2000 м слабый дождь 10/6 600 м
[Sc As op]
+14.7 +14.0 96 +14 +14 1018.6 955.0 7
18 16.12 С 1 2000 м слабая морось {дождь} 10/6 450 м
[Frnb As op]
+14.6 +14.1 97 +15 +15 1018.0 954.4 8
21 16.12 СЗ 1 2000 м слабая морось 10/6 600 м
[Sc As op]
+14.4 +14.1 98 +15 +15 1015.8 952.2 9
00 17.12 С 2 2000 м слабый дождь {морось} 10/8 450 м
[Frnb As op]
+14.8 +14.5 98 +15 +15 1015.0 951.5 20
03 17.12 СВ 3 4000 м {дождь} 10/8 450 м
[St As trans]
+15.0 +14.3 96 +14 +15 1016.8 953.2 +13.3 21
06 17.12 В 3 2000 м слабый дождь 10/8 450 м
[Frnb As op]
+15.2 +14.5 96 +14 +15 1015.3 952.0 2
09 17.12 СВ 3 2000 м в посл. час дождь 10/6 450 м
[Frnb As op]
+15.4 +14.7 96 +15 +15 1012.3 949.2 4
12 17.12 СВ 3 2000 м слабый дождь 10/6 300 м
[Frnb As op]
+15.4 +14.4 94 +15 +15 1012.2 949.1 +15.8 6
15 17.12 СЗ 1 2000 м слабый дождь 10/6 360 м
[Frnb As op]
+16.6 +13.9 84 +17 +17 1013.7 950.8 7
18 17.12 СВ 1 2000 м слабый дождь 10/6 360 м
[Frnb As op]
+16.2 +15.2 94 +17 +17 1014.1 951.0 8
21 17.12 С 1 2000 м слабый дождь 10/6 360 м
[Frnb As op]
+15.6 +14.6 94 +16 +16 1013.3 950.2 10
00 18.12 СВ 2 2000 м слабый дождь 10/6 360 м
[Frnb As op]
+15.4 +14.7 96 +15 +15 1014.6 951.3 11
03 18.12 В 3 2000 м в посл. час дождь 10/6 300 м
[Frnb As op]
+15.4 +14.4 94 +15 +15 1017.5 954.1 +13.9 11
06 18.12 СВ 3 2000 м слабая морось {дождь} 10/6 300 м
[Frnb As op]
+16.1 +14.3 89 +16 +16 1017.5 954.3 0.0
09 18.12 СВ 1 2000 м {морось} 10/6 450 м
[St As trans]
+17.0 +14.7 86 +18 +19 1017.6 951.5 0.1
12 18.12 СВ 1 2000 м мгла {морось} 10/6 450 м
[St As trans]
+17.0 +14.7 86 +18 +18 1015.3 952.2 +17.1 0.1
15 18.12 СВ 2 4000 м 10/6 450 м
[St As trans]
+16.8 +14.8 88 +17 +17 1017.2 954.0
18 18.12 СВ 2 4000 м 10/6 450 м
[St As trans]
+16.4 +14.7 90 +16 +16 1017.4 954.2 0.1
21 18.12 СВ 2 4000 м 10/6 450 м
[St As trans]
+16.0 +14.7 92 +16 +16 1016.3 953.0 0.1
00 19.12 С 2 4000 м 10/5 600 м
[Sc As trans]
+16.0 +13.6 86 +16 +16 1016.7 953.3 0.1
03 19.12 В 2 2000 м мгла 10/6 450 м
[St As trans]
+17.4 +14.2 81 +18 +19 1019.2 956.1 +14.5 0.1

 

Местоположение метеостанции Jagdalpur (Chhattisgarh, Индия): широта 19.08 долгота 82.03 высота над уровнем моря 553 м.

В архиве по умолчанию представлена погода в Jagdalpur за последнюю неделю. Архивные данные за месяц целиком и за предыдущие месяцы, начиная с января 2011 года, Вы можете получить, выбрав интересующий диапазон дат из раскрывающегося списка и нажав кнопку "Ввод!".


*Определитесь, кто Вы:
робот инопланетянин человек

Внимание! Время в таблицах - всемирное. Для получения местного времени необходимо прибавить поправку, которая в Jagdalpur равна 5.5 ч.

Смотрите также архив погоды в соседних городах и на ближайших метеорологических станциях:

Погода в Koraput (Orissa, Индия) (78 км)
Погода в Bhawanipatna (Orissa, Индия) (153 км)
Погода в Titlagarh (Orissa, Индия) (190 км)
Погода в Visakhapatnam (Andhra Pradesh, Индия) (197 км)
Погода в Bhadrachalam (Telangana, Индия) (198 км)
Погода в Tuni (Andhra Pradesh, Индия) (200 км)
Погода в Visakhapatnam Walt (Andhra Pradesh, Индия) (204 км)
Погода в Kalingapatam (Andhra Pradesh, Индия) (236 км)
Погода в Kakinada (Andhra Pradesh, Индия) (238 км)
Погода в Raipur (Chhattisgarh, Индия) (242 км)

Пояснения к столбцам:

Ветер - указаны скорость ветра в м/с - средняя за 10 мин, порывы в срок и между сроками (в фигурных скобках) и направление, откуда дует ветер: С - северный, СВ - северо-восточный, В - восточный, ЮВ - юго-восточный, Ю - южный, ЮЗ - юго-западный, З - западный, СЗ - северо-западный.
Видимость - горизонтальная дальность видимости в метрах или километрах. При видимости от 1 до 10 км при отсутствии осадков обычно наблюдается дымка, при ухудшении видимости до 1 км и менее - туман. В сухую погоду видимость может ухудшаться дымом, пылью или мглою.
Явления - указаны атмосферные явления, наблюдавшиеся в срок или в последний час перед сроком; фигурными скобками обозначены явления, наблюдавшиеся между сроками (за 1-3 часа до срока); квадратными скобками обозначены град или гололедные отложения с указанием их диаметра в мм.
Облачность - указаны через наклонную черту общая и нижняя облачность в баллах и высота нижней границы облаков в метрах; квадратными скобками обозначены формы облаков: Ci - перистые, Cs - перисто-слоистые, Cc - перисто-кучевые, Ac - высококучевые, As - высокослоистые, Sc - слоисто-кучевые, Ns - слоисто-дождевые, Cu - кучевые, Cb - кучево-дождевые. Подробнее классификацию облаков см. в Атласе облаков (PDF).
T - Температура воздуха - температура, измеренная на высоте 2 м над землей.
Td - Температура точки росы - температура, при понижении до которой содержащийся в воздухе водяной пар достигнет насыщения.
f - Относительная влажность воздуха - влажноcть воздуха, измеренная на высоте 2 м над землей.
Te - Эффективная температура - температура, которую ощущает одетый по сезону человек в тени. Характеристика душности погоды. При расчете учитывается влияние влажности воздуха и скорости ветра на теплоощущения человека.
Tes - Эффективная температура на солнце - температура, которую ощущает человек, с поправкой на солнечный нагрев. Характеристика знойности погоды. Зависит от высоты солнца над горизонтом, облачности и скорости ветра. Ночью, в пасмурную погоду, а также при ветре 12 м/с и более поправка равна нулю.
P - Атмосферное давление - приведенное к уровню моря атмосферное давление.
Po - Атмосферное давление - измеренное на уровне метеостанции атмосферное давление.
Tmin - Минимальная температура - минимум температуры воздуха на высоте 2 м над землей.
Tmax - Максимальная температура - максимум температуры воздуха на высоте 2 м над землей.
R - Количество осадков - Количество выпавших осадков за период времени, мм. При наведении курсора мыши на число - период времени, за который выпало указанное количество осадков.
R24 - Количество осадков - Количество выпавших осадков за 24 часа, мм.
S - Снежный покров - Высота снежного покрова, см. При наведении курсора мыши на число - состояние снежного покрова и степень покрытия местности в баллах.